{"data":{"norad_id":49424,"epoch":"2026-05-24T23:57:42.509088Z","epoch_age_seconds":85865,"freshness":"FRESH","line1":"1 49424U 21104S   26144.99840867  .00000395  00000+0  42888-4 0  9999","line2":"2 49424  53.2146 246.5574 0001160  89.9212 270.1913 15.08836523250144","mean_motion":15.08836523,"eccentricity":0.000116,"inclination_deg":53.2146,"raan_deg":246.5574,"arg_perigee_deg":89.9212,"mean_anomaly_deg":270.1913,"bstar":4.2888e-5,"rev_number":25014,"period_min":95.437774606414,"perigee_km":538.95154142457,"apogee_km":540.55649214046,"semimajor_km":6917.8910167825,"source":"CELESTRAK","updated_at":"2026-05-25T13:38:16.797698Z"}}